Meteo pe oră la Abanto

Astăzi, 24 Iulie, Sâmbătă

Timp Temperatura Precipitaţii Vânt Presiune Umiditate
00:00 +22°C° 0 mm 1 m/s 680 mmHg 32%
01:00 +21°C° 0 mm 1 m/s 680 mmHg 34%
02:00 +19°C° 0 mm 2 m/s 679 mmHg 36%
03:00 +18°C° 0 mm 2 m/s 679 mmHg 38%
04:00 +18°C° 0 mm 2 m/s 679 mmHg 40%
05:00 +18°C° 0 mm 2 m/s 679 mmHg 42%
06:00 +18°C° 0 mm 2 m/s 680 mmHg 44%
07:00 +20°C° 0 mm 2 m/s 680 mmHg 40%
08:00 +21°C° 0 mm 3 m/s 680 mmHg 36%
09:00 +24°C° 0 mm 3 m/s 681 mmHg 31%
10:00 +26°C° 0 mm 4 m/s 681 mmHg 27%
11:00 +27°C° 0 mm 5 m/s 681 mmHg 24%
12:00 +29°C° 0 mm 5 m/s 681 mmHg 20%
13:00 +30°C° 0 mm 5 m/s 681 mmHg 19%
14:00 +30°C° 0 mm 5 m/s 681 mmHg 17%
15:00 +32°C° 0 mm 5 m/s 680 mmHg 16%
16:00 +30°C° 0 mm 5 m/s 680 mmHg 16%
17:00 +30°C° 0 mm 5 m/s 680 mmHg 16%
18:00 +29°C° 0 mm 5 m/s 680 mmHg 16%
19:00 +27°C° 0 mm 4 m/s 680 mmHg 19%
20:00 +25°C° 0 mm 3 m/s 680 mmHg 22%
21:00 +23°C° 0 mm 2 m/s 680 mmHg 25%
22:00 +21°C° 0 mm 2 m/s 680 mmHg 30%
23:00 +21°C° 0 mm 1 m/s 680 mmHg 36%

Mâine, 25 Iulie, Duminică

Timp Temperatura Precipitaţii Vânt Presiune Umiditate
00:00 +20°C° 0 mm 1 m/s 679 mmHg 42%
01:00 +19°C° 0 mm 1 m/s 679 mmHg 47%
02:00 +18°C° 0 mm 1 m/s 679 mmHg 53%
03:00 +16°C° 0 mm 1 m/s 679 mmHg 59%
04:00 +18°C° 0 mm 1 m/s 679 mmHg 59%
05:00 +18°C° 0 mm 1 m/s 679 mmHg 59%
06:00 +16°C° 0 mm 0 m/s 679 mmHg 59%
07:00 +20°C° 0 mm 1 m/s 680 mmHg 54%
08:00 +21°C° 0 mm 1 m/s 680 mmHg 49%
09:00 +23°C° 0 mm 1 m/s 680 mmHg 44%
10:00 +24°C° 0 mm 1 m/s 680 mmHg 39%
11:00 +26°C° 0 mm 2 m/s 680 mmHg 34%
12:00 +28°C° 0 mm 2 m/s 680 mmHg 29%
13:00 +28°C° 0 mm 3 m/s 680 mmHg 27%
14:00 +29°C° 0 mm 3 m/s 680 mmHg 25%
15:00 +30°C° 0 mm 4 m/s 680 mmHg 23%
16:00 +29°C° 0 mm 5 m/s 679 mmHg 26%
17:00 +28°C° 0 mm 6 m/s 679 mmHg 28%
18:00 +27°C° 0 mm 8 m/s 679 mmHg 31%
19:00 +24°C° 0 mm 6 m/s 679 mmHg 40%
20:00 +21°C° 0 mm 5 m/s 680 mmHg 49%
21:00 +19°C° 0 mm 3 m/s 680 mmHg 58%
22:00 +18°C° 0 mm 3 m/s 680 mmHg 61%
23:00 +17°C° 0 mm 2 m/s 680 mmHg 63%

Poimâine, 26 Iulie, Luni

Timp Temperatura Precipitaţii Vânt Presiune Umiditate
00:00 +18°C° 0 mm 1 m/s 680 mmHg 66%
01:00 +16°C° 0.1 mm 1 m/s 680 mmHg 68%
02:00 +16°C° 0.1 mm 1 m/s 680 mmHg 70%
03:00 +15°C° 0.1 mm 1 m/s 680 mmHg 72%
04:00 +15°C° 0 mm 1 m/s 680 mmHg 71%
05:00 +15°C° 0 mm 1 m/s 680 mmHg 70%
06:00 +15°C° 0 mm 1 m/s 681 mmHg 69%
07:00 +17°C° 0 mm 2 m/s 681 mmHg 62%
08:00 +19°C° 0 mm 2 m/s 681 mmHg 55%
09:00 +20°C° 0 mm 3 m/s 682 mmHg 48%
10:00 +22°C° 0 mm 3 m/s 682 mmHg 43%
11:00 +25°C° 0 mm 3 m/s 682 mmHg 39%
12:00 +26°C° 0 mm 4 m/s 682 mmHg 35%
13:00 +27°C° 0 mm 4 m/s 682 mmHg 34%
14:00 +27°C° 0 mm 4 m/s 682 mmHg 33%
15:00 +28°C° 0 mm 4 m/s 681 mmHg 32%
16:00 +27°C° 0 mm 4 m/s 681 mmHg 33%
17:00 +27°C° 0 mm 5 m/s 681 mmHg 33%
18:00 +26°C° 0 mm 5 m/s 681 mmHg 34%
19:00 +23°C° 0 mm 4 m/s 681 mmHg 41%
20:00 +21°C° 0 mm 3 m/s 682 mmHg 49%
21:00 +19°C° 0 mm 2 m/s 682 mmHg 56%
22:00 +19°C° 0 mm 2 m/s 682 mmHg 58%
23:00 +18°C° 0 mm 2 m/s 681 mmHg 61%

27 Iulie, Marţi

Timp Temperatura Precipitaţii Vânt Presiune Umiditate
00:00 +19°C° 0 mm 1 m/s 681 mmHg 63%
01:00 +18°C° 0 mm 1 m/s 681 mmHg 64%
02:00 +18°C° 0 mm 1 m/s 681 mmHg 66%
03:00 +18°C° 0 mm 1 m/s 681 mmHg 67%
04:00 +18°C° 0 mm 1 m/s 681 mmHg 67%
05:00 +18°C° 0 mm 1 m/s 681 mmHg 67%
06:00 +19°C° 0 mm 1 m/s 681 mmHg 67%
07:00 +21°C° 0 mm 1 m/s 681 mmHg 60%
08:00 +23°C° 0 mm 1 m/s 681 mmHg 53%
09:00 +25°C° 0 mm 1 m/s 682 mmHg 46%
10:00 +27°C° 0 mm 2 m/s 682 mmHg 41%
11:00 +28°C° 0 mm 3 m/s 682 mmHg 36%
12:00 +30°C° 0 mm 4 m/s 682 mmHg 31%
13:00 +30°C° 0 mm 5 m/s 682 mmHg 32%
14:00 +30°C° 0 mm 5 m/s 681 mmHg 32%
15:00 +29°C° 0 mm 5 m/s 681 mmHg 33%
16:00 +28°C° 0 mm 5 m/s 681 mmHg 36%
17:00 +27°C° 0 mm 6 m/s 681 mmHg 39%
18:00 +27°C° 0 mm 7 m/s 681 mmHg 42%
19:00 +23°C° 0 mm 5 m/s 682 mmHg 49%
20:00 +21°C° 0 mm 4 m/s 682 mmHg 56%
21:00 +19°C° 0 mm 3 m/s 682 mmHg 63%
22:00 +19°C° 0 mm 2 m/s 682 mmHg 65%
23:00 +18°C° 0 mm 2 m/s 683 mmHg 68%

28 Iulie, Miercuri

Timp Temperatura Precipitaţii Vânt Presiune Umiditate
00:00 +17°C° 0 mm 2 m/s 683 mmHg 70%
01:00 +17°C° 0 mm 2 m/s 682 mmHg 72%
02:00 +16°C° 0 mm 2 m/s 682 mmHg 74%
03:00 +16°C° 0 mm 2 m/s 682 mmHg 76%
04:00 +16°C° 0 mm 2 m/s 682 mmHg 76%
05:00 +16°C° 0 mm 2 m/s 682 mmHg 76%
06:00 +16°C° 0 mm 1 m/s 683 mmHg 77%
07:00 +18°C° 0 mm 2 m/s 683 mmHg 70%
08:00 +20°C° 0 mm 2 m/s 683 mmHg 64%
09:00 +23°C° 0 mm 2 m/s 684 mmHg 58%
10:00 +25°C° 0 mm 3 m/s 684 mmHg 50%
11:00 +28°C° 0 mm 3 m/s 684 mmHg 43%
12:00 +30°C° 0 mm 3 m/s 684 mmHg 36%
13:00 +30°C° 0 mm 4 m/s 684 mmHg 37%
14:00 +30°C° 0 mm 5 m/s 683 mmHg 37%
15:00 +30°C° 0 mm 6 m/s 683 mmHg 37%
16:00 +30°C° 0 mm 6 m/s 683 mmHg 40%
17:00 +29°C° 0 mm 6 m/s 683 mmHg 43%
18:00 +28°C° 0 mm 6 m/s 683 mmHg 45%
19:00 +27°C° 0 mm 5 m/s 683 mmHg 49%
20:00 +26°C° 0 mm 4 m/s 683 mmHg 54%
21:00 +25°C° 0 mm 3 m/s 683 mmHg 58%
22:00 +24°C° 0 mm 2 m/s 683 mmHg 61%
23:00 +23°C° 0 mm 2 m/s 683 mmHg 65%

29 Iulie, Joi

Timp Temperatura Precipitaţii Vânt Presiune Umiditate
00:00 +22°C° 0 mm 1 m/s 682 mmHg 69%
01:00 +21°C° 0 mm 1 m/s 682 mmHg 71%
02:00 +21°C° 0 mm 1 m/s 682 mmHg 73%
03:00 +20°C° 0 mm 1 m/s 682 mmHg 76%
04:00 +20°C° 0 mm 1 m/s 682 mmHg 74%
05:00 +20°C° 0 mm 1 m/s 682 mmHg 72%
06:00 +21°C° 0 mm 1 m/s 682 mmHg 70%
07:00 +23°C° 0 mm 2 m/s 683 mmHg 59%
08:00 +26°C° 0 mm 2 m/s 683 mmHg 48%
09:00 +29°C° 0 mm 2 m/s 683 mmHg 37%
10:00 +31°C° 0 mm 3 m/s 683 mmHg 32%
11:00 +34°C° 0 mm 4 m/s 683 mmHg 26%
12:00 +36°C° 0 mm 6 m/s 683 mmHg 21%
13:00 +38°C° 0 mm 6 m/s 683 mmHg 19%
14:00 +38°C° 0 mm 6 m/s 683 mmHg 17%
15:00 +39°C° 0 mm 7 m/s 682 mmHg 15%
16:00 +38°C° 0 mm 7 m/s 682 mmHg 16%
17:00 +36°C° 0 mm 7 m/s 682 mmHg 17%
18:00 +36°C° 0 mm 7 m/s 682 mmHg 18%
19:00 +33°C° 0 mm 6 m/s 681 mmHg 22%
20:00 +30°C° 0 mm 4 m/s 681 mmHg 26%
21:00 +28°C° 0 mm 2 m/s 681 mmHg 30%
22:00 +26°C° 0 mm 2 m/s 681 mmHg 38%
23:00 +24°C° 0 mm 2 m/s 681 mmHg 46%
Arată mai mult

Formular de consimțământ

Meteoprog și furnizorii noștri de servicii pot stoca și accesa date personale, precum cookies, identificatori de dispozitiv sau alte tehnologii similare pe dispozitivul dumneavoastră și procesa astfel de date pentru a personaliza conținutul și reclamele, dar și pentru a oferi caracteristici de social media și pentru a analiza traficul.

  • Stocarea și/sau accesarea informațiilor pe dispozitivul dumneavoastră

    Cookies, identificatori de dispozitiv sau alte informații pot fi stocate sau accesate pe dispozitiv în scopurile indicate mai sus.

  • Reclame și conținut personalizat, evaluarea reclamelor și a conținutului, informații despre audiențe și dezvoltarea produselor

    Reclamele și conținutul pot fi personalizate pe baza unui profil. Pot fi adăugate date suplimentare pentru a personaliza mai bine reclamele și conținutul. Performanța reclamelor și conținutului poate fi măsurată. Pot fi obținute informații despre utilizatorii care au văzut reclamele și conținutul. Aceste date pot fi utilizate pentru a dezvolta sau îmbunătăți experiența utilizatorilor, sistemele și software-ul.

Dând clic pe ‘Sunt de acord’, permiteți utilizarea cookie-urilor menționate, a identificatorilor de dispozitiv, balizelor web sau altor tehnologii similare. Setările pot fi modificate din browser-ul dispozitivului dumneavoastră.

În anumite scopuri, interesele legitime pot prima asupra consimțământului. Puteți citi mai multe informații în acest sens în Politica privind Confidențialitatea Datelor și Cookie.